{"data":{"norad_id":65476,"intl_designator":"2025-195U","name":"STARLINK-35098","alt_names":[],"object_type":"PAYLOAD","status":"ACTIVE","operator":null,"country":"US","launch_date":"2025-09-03","launch_site_code":"AFETR","launch_vehicle":null,"mission":null,"orbit_class":"UNKNOWN","rcs_meters":null,"size_class":null,"mass_kg":null,"dimensions":null,"purposes":["comms"],"wikipedia_slug":null,"has_3d_model":false,"image_url":null,"decayed_at":null,"tle_current":{"epoch":"2026-05-24T20:21:43.678944Z","epoch_age_seconds":85613,"freshness":"FRESH","line1":"1 65476U 25195U   26144.84842221  .00026175  00000+0  85170-3 0  9992","line2":"2 65476  53.1576 263.7424 0001504  80.5062 279.6109 15.31721572 41649","mean_motion":15.31721572,"eccentricity":0.0001504,"inclination_deg":53.1576,"raan_deg":263.7424,"arg_perigee_deg":80.5062,"mean_anomaly_deg":279.6109,"bstar":0.0008517,"rev_number":4164,"period_min":94.011863926403,"perigee_km":469.64562954214,"apogee_km":471.70575239959,"semimajor_km":6848.8126909709,"source":"CELESTRAK","updated_at":"2026-05-25T13:38:20.815788Z"}}}